Lid_Strength_Index
1 1 1 1 1 1 1 1 0 0 -0 0 -0 0 0 0 0 1 1 1 1 1 1 1 1 1 1 1 1 1 1 2 4 3 1 2 2 2 0 -1 -1 -1 -0
1 0 1 1 1 1 1 0 -0 0 -1 -0 0 1 0 0 0 1 1 1 1 1 1 1 1 1 1 1 1 1 2 1 2 4 3 2 1 2 0 0 0 -0 -0
1 1 1 1 1 1 0 0 0 0 -0 -0 0 1 1 1 1 1 1 1 1 1 1 1 1 1 2 1 1 1 1 1 2 2 3 2 3 1 1 0 0 0 -0
1 1 1 1 1 0 0 0 0 0 0 0 0 0 1 1 0 1 1 1 1 1 1 1 1 1 1 1 1 1 1 1 2 2 2 2 2 1 1 2 2 1 1
1 2 2 1 0 -0 0 0 0 0 0 0 1 1 1 1 1 1 1 1 1 1 1 1 1 1 1 1 1 1 1 2 2 3 3 2 3 3 3 2 2 2 1
1 1 0 -1 -1 -0 -0 -0 1 1 0 0 1 1 1 1 2 3 1 1 1 1 2 1 1 1 1 2 1 2 1 2 2 3 3 3 3 2 2 2 2 3 4
1 1 1 1 1 1 0 0 1 1 1 1 1 1 1 2 2 2 3 1 1 1 1 1 1 1 1 1 2 2 2 2 2 1 2 2 2 1 1 2 2 2 3
1 1 1 1 1 1 1 1 1 1 1 1 1 1 1 2 4 2 2 1 1 1 1 1 1 1 1 1 1 1 1 1 1 1 1 1 1 0 1 1 1 2 1
2 1 1 1 2 1 1 1 1 1 1 1 1 1 1 1 6 5 3 1 1 1 1 1 1 1 2 2 1 2 2 1 2 2 2 1 0 0 1 1 2 3 3
2 1 1 1 1 2 1 1 1 1 1 1 1 1 2 1 4 7 4 1 2 2 1 1 3 1 2 3 2 2 3 2 1 1 1 2 2 1 3 0 1 3 3
1 1 1 1 1 1 1 1 1 1 1 2 2 1 1 1 1 7 7 1 2 2 2 2 1 5 6 6 4 1 2 1 1 1 1 1 1 1 0 0 0 1 2
1 1 1 1 1 1 1 1 1 2 2 2 2 2 1 1 2 7 7 6 3 2 2 1 1 6 7 7 5 3 4 4 1 2 2 2 2 2 1 0 0 0 -0
2 2 1 1 1 1 2 2 2 2 2 2 3 3 2 1 1 4 8 7 6 2 2 2 4 8 8 8 6 6 6 2 2 2 2 2 2 1 0 0 0 -0 0
2 2 2 2 2 1 1 2 2 2 2 2 3 3 2 2 1 1 2 5 6 5 4 2 2 4 4 3 3 5 3 1 2 2 2 1 1 1 1 1 2 1 2
2 2 2 2 2 2 2 2 2 1 2 2 2 2 2 3 2 6 5 1 1 4 4 2 2 2 2 2 2 1 2 1 2 2 2 2 2 2 2 1 2 2 3
2 2 2 2 2 2 2 2 4 5 5 6 8 6 1 4 8 10 12 11 10 10 3 3 3 3 3 3 2 2 2 2 2 2 2 2 2 2 2 2 2 2 3
3 3 2 3 2 2 2 3 3 2 7 7 8 8 9 6 9 11 11 10 11 8 3 3 3 3 3 2 2 2 2 2 1 2 2 2 2 2 2 2 2 2 3
2 3 2 2 2 2 2 2 2 3 3 3 6 8 7 9 10 10 11 8 3 5 2 3 3 2 2 2 2 2 2 2 2 4 4 2 2 2 2 3 2 3 3
2 2 2 2 2 2 2 2 2 2 3 3 2 4 6 11 11 11 10 2 3 3 2 2 2 2 2 2 2 2 2 2 2 2 2 2 2 2 2 2 2 5 4
2 2 2 2 2 2 2 3 3 3 3 3 3 2 2 5 3 2 3 2 2 2 2 2 2 2 2 2 2 2 2 2 2 2 2 2 2 2 2 2 2 3 3
2 2 2 2 2 2 2 2 3 3 3 3 3 2 5 2 3 2 2 2 2 2 2 2 2 2 1 1 1 2 2 2 2 2 2 2 2 2 2 2 2 2 2
2 2 2 2 2 2 2 2 2 2 3 3 2 2 7 3 2 2 2 2 1 1 1 1 1 1 1 1 1 1 2 2 2 2 2 2 2 2 2 2 2 2 2
4 2 2 2 2 3 3 3 3 3 3 2 2 2 2 2 2 2 2 1 1 1 1 1 1 1 1 1 1 1 1 1 1 1 1 2 2 2 2 2 3 3 2
5 3 2 2 2 2 3 3 3 3 3 2 2 2 2 2 2 2 1 1 1 1 1 1 1 1 1 1 0 0 0 0 0 1 1 1 2 2 2 2 2 2 2
4 3 2 2 3 3 3 3 2 2 2 2 2 2 2 2 2 1 1 1 1 1 1 1 1 1 1 1 1 0 3 9 4 6 1 1 1 2 2 2 2 2 2
7 5 5 4 4 3 3 3 3 3 3 2 2 2 2 2 2 2 2 2 1 1 1 1 1 1 1 1 1 4 12 15 8 14 1 1 1 1 2 2 2 2 2